Temperature
20 20 19 19 19 18 18 18 17 17 17 16 16 16 16 16 15 15 15 15 15 15 14 14 14 14 14 14 14 14 14 14 15 16 16 16 16 16 16 16 15 15 15
20 19 19 19 19 18 18 18 17 17 16 16 16 16 16 16 15 15 15 15 15 15 14 14 14 14 14 14 14 14 14 14 14 15 15 15 15 16 15 15 15 15 15
19 19 19 19 18 18 18 17 17 17 16 16 16 16 16 16 15 15 15 15 15 14 14 14 14 14 14 14 14 14 14 14 14 14 14 15 15 15 15 15 15 15 15
19 19 18 18 18 18 17 17 17 17 16 16 16 16 16 15 15 15 15 15 14 14 14 14 14 14 13 13 13 13 13 13 13 14 14 14 15 15 15 15 15 15 15
18 18 18 17 17 17 17 17 17 17 16 16 16 16 15 15 15 15 15 15 14 14 14 14 14 13 13 13 13 13 13 13 13 13 13 14 14 14 15 15 14 14 14
18 18 17 17 17 17 17 16 16 16 16 16 16 16 15 15 15 15 15 15 15 14 14 14 14 14 13 13 13 13 13 13 13 13 13 13 14 14 14 14 14 14 14
17 17 16 16 16 16 16 16 16 16 16 16 16 15 15 15 15 15 15 15 15 14 14 14 14 14 14 13 13 13 13 13 13 13 13 13 13 13 13 13 13 13 14
16 15 15 15 15 15 16 15 15 15 15 15 15 15 15 15 15 15 15 15 15 14 14 14 14 14 14 13 13 13 13 13 13 13 13 13 13 13 13 13 13 13 13
14 14 14 14 14 14 15 15 15 14 15 15 15 15 15 15 15 15 15 15 14 14 14 14 14 14 14 13 13 13 13 13 13 13 12 12 12 12 12 12 12 12 13
13 13 13 13 13 13 13 13 13 14 14 14 14 14 14 14 14 14 14 14 14 14 14 14 14 14 14 13 13 13 13 13 13 13 13 13 13 12 12 12 12 12 13
12 12 12 12 12 12 12 12 12 13 13 13 13 14 14 14 14 14 14 14 14 14 14 14 14 14 13 13 13 13 13 13 13 13 13 13 12 12 12 12 12 12 13
12 12 12 12 12 12 12 12 12 12 12 12 13 13 13 13 14 14 14 14 14 14 14 14 13 13 13 13 13 13 13 13 13 13 13 13 13 13 12 12 12 13 13
13 12 12 12 12 12 12 12 12 12 12 12 12 13 13 13 13 13 13 13 13 13 13 13 13 13 13 13 13 12 12 12 12 12 12 12 12 12 12 12 12 12 12
13 12 12 12 12 12 11 11 11 11 12 12 12 12 12 12 13 13 13 13 13 12 12 12 12 12 12 12 12 12 12 12 12 12 12 12 12 12 12 12 12 12 12
12 12 12 12 11 11 11 11 11 11 11 11 11 12 12 12 12 12 12 12 12 12 12 12 12 12 12 12 12 12 12 12 12 12 12 12 12 12 12 12 12 11 11
13 12 12 11 11 11 11 11 11 11 11 11 11 11 11 11 12 12 12 11 11 12 12 12 12 12 12 12 11 11 11 11 11 11 11 11 11 11 11 11 11 11 11
13 12 12 11 11 11 11 11 11 10 10 11 11 11 11 11 11 11 11 11 11 11 11 11 11 11 11 11 11 11 11 11 11 11 11 11 11 11 10 10 10 10 10
13 12 12 11 11 11 11 11 10 10 10 10 10 10 10 11 11 11 11 11 11 11 11 11 11 11 11 10 10 10 10 10 10 10 10 10 10 10 10 10 10 10 10
13 12 12 11 11 11 11 11 10 10 10 10 10 10 10 10 10 10 10 10 10 10 10 10 10 10 10 10 10 10 10 10 10 10 9 9 9 9 9 9 9 9 9
13 12 12 11 11 11 11 11 10 10 10 10 9 9 9 9 10 10 9 9 9 9 9 9 9 9 9 9 9 9 9 9 9 9 9 9 9 9 9 9 9 9 9
13 12 12 11 11 11 11 11 11 10 10 9 9 9 9 9 9 9 9 9 9 9 9 9 9 9 9 9 9 9 9 9 9 9 9 9 8 8 8 8 8 8 8
13 12 12 11 11 11 11 11 10 10 10 10 9 9 9 9 9 9 9 9 9 9 9 9 9 9 9 9 9 9 9 9 9 9 8 8 8 8 8 7 7 7 7
13 12 12 11 11 11 11 11 11 10 10 10 10 9 9 9 9 9 9 9 9 9 9 9 9 9 9 9 9 9 9 9 9 9 8 8 7 7 7 7 7 7 7
13 12 12 11 11 11 11 11 11 10 10 10 10 10 9 9 9 9 9 9 9 9 9 9 9 8 8 8 8 8 9 9 8 8 8 7 7 6 6 6 6 6 6
13 12 12 11 11 11 11 11 11 10 10 10 10 10 10 9 9 9 9 9 9 9 8 8 8 8 8 8 8 8 8 8 8 7 7 6 6 6 6 6 6 6 6
13 12 11 11 11 11 11 11 11 10 10 10 10 10 10 9 9 9 9 9 8 8 8 8 8 8 8 8 8 8 8 7 7 7 6 6 5 5 5 5 5 5 5
Wind_Speed
5 5 5 5 5 5 4 5 5 4 5 5 6 6 6 6 6 6 6 7 7 7 6 7 8 7 6 6 6 5 4 4 4 3 3 3 6 7 8 12 13 12 11
5 5 5 5 4 5 5 4 5 5 5 5 5 6 6 6 6 7 7 7 7 7 7 7 8 7 7 6 6 7 6 5 4 4 3 3 5 6 7 7 8 11 11
3 4 3 3 4 4 5 5 5 5 4 4 5 6 6 6 6 6 6 6 6 6 7 7 7 6 7 6 7 7 6 6 4 3 3 3 2 3 4 4 5 4 8
3 3 2 2 3 4 4 4 5 5 5 5 5 6 6 6 6 6 6 6 5 5 5 6 6 7 7 7 6 7 6 6 5 4 3 3 2 2 4 4 4 4 5
2 3 3 2 2 3 3 3 3 3 4 5 5 5 5 5 6 6 6 6 6 5 4 4 5 7 9 7 6 6 7 6 5 4 4 3 3 3 4 4 5 4 4
3 2 2 1 1 2 3 3 2 3 3 4 5 6 6 6 9 11 8 6 6 6 5 4 4 6 8 11 11 10 10 7 7 5 5 5 5 5 4 5 5 4 4
6 4 3 2 0 2 2 1 2 3 3 3 4 5 6 7 10 12 12 7 6 6 6 5 5 5 7 5 7 10 11 12 10 7 6 6 5 6 6 6 6 6 6
8 7 5 3 2 2 1 0 2 2 2 3 3 5 5 7 11 12 12 7 5 6 6 6 6 5 6 6 5 5 6 7 9 8 7 7 7 6 7 7 6 6 3
7 6 6 5 5 5 4 3 2 1 1 2 2 4 5 6 10 11 11 5 4 5 5 5 6 6 8 9 6 6 6 6 8 11 11 10 11 11 8 5 4 4 5
5 5 5 5 5 5 4 3 2 1 1 1 1 2 4 5 8 10 11 5 4 3 3 3 7 8 7 8 7 6 7 6 5 4 6 8 8 8 11 9 7 6 4
3 5 6 5 5 5 4 4 3 3 2 2 1 1 1 3 6 9 10 5 5 4 3 2 2 6 7 7 7 6 7 5 4 4 4 4 4 4 5 6 6 7 6
4 5 5 6 5 5 6 6 6 5 5 4 3 3 2 1 2 5 8 7 6 4 3 3 2 3 4 5 4 4 5 3 2 2 2 3 4 4 4 4 5 5 5
5 4 4 5 6 6 6 7 6 6 5 4 4 3 3 3 2 2 4 6 6 3 3 4 4 4 3 2 2 2 1 1 1 1 2 3 2 2 2 2 3 2 2
5 3 3 4 5 6 6 6 6 6 6 5 4 4 3 3 3 2 2 3 4 4 3 3 5 4 2 1 0 1 0 1 1 1 1 1 0 1 1 2 2 2 1
4 2 2 3 4 5 5 6 5 5 4 3 3 2 2 2 3 1 2 2 3 3 4 2 2 1 1 1 1 1 1 1 1 1 1 1 1 1 1 1 2 2 2
3 1 1 1 1 2 3 3 7 7 9 10 8 4 3 4 4 6 6 5 3 6 4 2 1 1 1 1 1 1 1 1 1 1 1 1 1 1 1 1 1 2 3
3 2 1 1 1 2 2 2 2 4 7 9 11 10 8 7 7 7 7 9 8 7 4 3 2 2 2 2 2 2 1 1 1 1 1 1 1 1 0 1 1 2 3
4 3 2 1 1 1 2 2 2 2 3 4 6 9 9 9 9 8 7 7 7 6 4 4 3 3 3 3 3 2 2 2 2 2 2 2 2 1 1 1 2 3 3
4 2 2 1 1 1 2 2 3 3 2 2 3 5 8 7 10 11 8 6 5 5 4 4 4 4 4 4 3 3 3 3 3 3 3 3 2 2 2 2 3 4 3
3 4 3 2 1 2 2 3 3 3 3 3 3 3 4 5 5 6 5 5 5 4 4 4 4 5 4 4 4 4 4 4 4 4 3 3 3 2 2 3 3 3 3
3 2 3 2 2 2 3 3 4 4 3 3 2 3 3 4 4 5 5 5 4 4 4 5 5 5 5 4 4 4 5 4 4 4 3 3 3 3 3 3 3 3 3
4 3 2 2 2 3 3 4 4 4 4 3 2 3 5 4 4 4 4 5 5 5 5 5 5 5 4 4 4 4 4 4 4 4 4 4 4 4 4 3 3 3 3
5 4 3 3 3 4 4 4 4 4 3 3 2 2 3 3 4 4 4 4 5 5 4 4 5 5 4 6 5 4 3 3 4 4 4 4 4 4 4 4 4 4 4
5 5 5 4 3 3 4 4 4 4 4 3 2 2 3 3 4 4 4 4 5 5 5 5 5 6 6 6 6 5 5 6 6 5 5 4 4 4 4 4 4 4 4
5 5 5 4 4 4 4 4 4 4 4 3 3 3 4 4 4 4 4 4 5 6 6 6 6 6 7 8 7 7 9 9 7 6 5 3 4 4 4 4 3 3 3
5 5 4 4 4 4 4 5 4 5 4 4 4 4 5 4 4 4 4 4 5 5 5 6 7 8 8 8 9 10 10 9 8 7 4 3 3 4 4 3 5 4 4
Wind_Direction
188 179 165 170 171 169 174 190 188 182 178 178 179 179 180 180 178 181 188 187 196 203 206 207 211 197 194 190 184 176 182 187 217 238 223 194 175 178 176 188 195 195 198
198 179 173 169 165 172 183 187 178 180 188 187 176 174 181 180 179 183 190 192 198 203 204 202 207 200 194 191 190 187 184 186 197 217 219 188 186 185 172 177 189 198 202
194 177 180 173 177 194 198 196 187 186 190 183 169 176 184 183 184 189 188 191 198 201 196 196 198 194 199 197 194 191 190 192 183 193 216 205 183 155 152 181 185 189 204
185 162 186 229 224 226 213 203 199 188 185 191 188 187 186 183 183 182 179 181 184 189 190 192 193 197 199 194 193 190 187 184 181 187 202 203 197 164 156 169 183 197 204
163 162 194 229 259 264 251 227 214 201 196 194 192 192 186 184 190 181 177 180 180 184 189 195 201 207 208 200 197 189 185 185 185 191 200 193 188 172 194 185 193 184 210
111 135 161 149 250 263 256 245 221 217 209 194 197 194 196 205 198 188 179 179 181 188 200 210 217 221 224 218 214 202 194 192 197 197 199 205 209 205 187 182 174 170 226
64 55 47 48 338 274 267 249 242 226 209 202 201 197 208 218 205 194 190 176 180 192 200 205 220 223 219 219 227 222 214 214 207 197 204 209 207 205 189 190 193 199 214
51 44 37 34 5 344 20 18 262 231 204 205 207 206 208 220 212 198 188 175 182 197 203 206 215 231 217 207 212 220 224 226 222 219 218 218 216 205 197 201 208 218 230
46 37 28 29 28 24 18 351 313 290 250 228 212 207 207 221 214 199 176 168 186 208 216 215 213 226 232 208 195 216 236 248 242 233 230 229 225 218 202 189 188 196 228
31 28 26 35 42 31 14 360 347 342 310 269 237 220 212 217 216 201 179 169 186 210 230 233 223 219 224 202 196 209 232 247 248 250 241 240 232 232 218 206 200 203 211
23 35 33 31 40 32 17 4 357 2 9 7 351 323 249 226 220 206 185 172 185 193 204 221 232 217 216 210 199 205 230 241 241 241 242 235 223 223 221 212 207 205 210
41 44 39 32 32 31 26 19 17 21 30 22 21 10 5 348 224 204 186 173 166 171 187 194 203 184 186 186 188 221 241 238 225 231 234 234 227 225 217 208 206 209 216
62 57 52 48 39 32 33 26 22 21 27 24 29 31 20 20 28 86 154 158 149 149 164 173 163 145 136 150 205 215 204 174 199 224 243 247 242 223 176 156 146 141 140
81 73 65 62 51 40 36 31 32 24 20 21 24 26 30 34 30 37 89 115 126 120 113 109 102 94 85 61 43 47 115 188 186 218 245 268 324 111 128 142 149 149 164
100 88 70 72 78 65 53 38 33 32 22 24 16 17 36 36 357 20 127 129 147 152 128 95 83 87 69 38 40 33 40 50 54 40 73 72 76 101 128 137 148 161 191
120 110 96 101 102 106 97 64 39 40 38 42 42 44 40 52 57 66 79 90 116 140 120 103 103 115 143 143 114 59 54 63 63 70 66 68 81 103 149 159 173 199 229
150 160 163 160 154 162 159 133 70 23 29 36 38 44 53 56 61 64 69 74 78 99 92 89 87 83 77 78 86 86 52 26 53 58 47 29 25 23 278 251 246 246 254
151 153 157 189 202 189 174 161 139 100 45 17 17 32 40 45 51 61 75 76 63 59 72 78 76 71 69 67 66 63 53 43 42 41 37 29 22 18 352 306 280 265 268
152 158 151 143 138 127 120 115 117 109 88 47 18 14 20 33 45 53 63 73 78 69 64 62 63 65 59 57 52 49 50 48 41 37 29 17 8 6 340 314 301 292 279
166 174 152 124 110 113 113 115 115 109 93 74 46 18 11 43 50 43 48 61 70 70 67 63 58 58 54 51 50 52 52 46 38 34 23 12 1 356 331 317 310 300 286
163 168 146 111 116 130 131 131 128 119 110 92 45 22 58 73 68 63 60 55 57 60 64 65 60 52 45 44 46 49 50 39 28 13 359 347 342 335 322 311 305 299 296
156 160 155 152 143 129 127 129 127 123 124 114 66 45 67 76 74 71 65 60 57 57 61 68 63 52 43 42 40 40 36 23 8 355 342 334 332 327 320 316 313 309 303
151 157 156 148 140 136 126 128 131 132 133 132 118 89 80 86 85 83 80 72 65 61 53 56 62 53 45 46 43 37 28 3 339 329 329 329 329 324 320 316 317 319 318
146 153 154 149 140 141 145 148 148 147 145 143 136 123 111 107 102 96 90 82 76 67 62 61 62 60 52 40 31 23 6 344 331 321 318 316 318 318 321 321 322 324 324
144 152 156 157 157 158 157 156 156 156 155 153 144 132 122 114 109 104 99 94 90 80 70 62 54 47 38 30 18 4 351 346 341 330 314 312 322 330 335 339 343 345 343
150 155 157 156 160 163 161 163 163 161 160 155 145 138 133 127 121 116 110 102 94 85 76 63 53 44 30 18 7 0 357 355 356 356 343 329 343 358 359 359 359 1 358
Height
1488 1489 1490 1491 1492 1493 1494 1495 1495 1496 1496 1497 1498 1498 1499 1499 1500 1501 1502 1503 1504 1505 1506 1507 1509 1511 1513 1515 1518 1520 1523 1525 1527 1529 1532 1534 1535 1537 1538 1539 1540 1541 1541
1488 1489 1489 1490 1491 1492 1493 1493 1494 1495 1495 1496 1496 1497 1497 1498 1498 1499 1500 1500 1501 1502 1503 1504 1505 1507 1508 1510 1513 1515 1517 1520 1523 1525 1527 1530 1531 1533 1535 1536 1537 1538 1538
1487 1488 1489 1489 1490 1491 1491 1492 1493 1493 1494 1495 1495 1496 1496 1496 1497 1497 1497 1498 1498 1499 1500 1501 1502 1504 1505 1506 1509 1511 1513 1515 1518 1521 1523 1525 1527 1529 1530 1532 1533 1534 1535
1486 1487 1488 1489 1489 1490 1490 1491 1491 1492 1492 1493 1494 1494 1495 1495 1495 1495 1496 1496 1496 1497 1498 1499 1500 1501 1502 1504 1505 1507 1509 1511 1513 1516 1519 1521 1523 1524 1526 1527 1528 1530 1531
1484 1485 1485 1486 1487 1487 1489 1489 1490 1491 1491 1492 1492 1493 1493 1493 1494 1494 1494 1494 1495 1495 1496 1497 1498 1499 1500 1501 1503 1504 1506 1507 1509 1511 1514 1516 1518 1519 1521 1522 1524 1526 1527
1481 1482 1483 1484 1484 1485 1487 1487 1488 1489 1489 1489 1490 1491 1491 1492 1492 1492 1493 1493 1493 1494 1495 1496 1496 1497 1498 1499 1500 1501 1503 1504 1505 1507 1509 1510 1512 1514 1516 1518 1520 1521 1522
1480 1481 1481 1482 1482 1483 1483 1484 1485 1486 1486 1486 1487 1488 1489 1489 1490 1490 1491 1491 1492 1493 1494 1494 1495 1496 1497 1498 1499 1499 1500 1502 1503 1504 1505 1506 1508 1510 1512 1513 1514 1515 1517
1480 1480 1480 1480 1480 1480 1481 1481 1481 1482 1483 1483 1484 1484 1485 1486 1487 1488 1489 1490 1491 1492 1493 1494 1494 1495 1496 1496 1497 1498 1499 1499 1500 1501 1502 1503 1504 1505 1506 1508 1509 1511 1512
1481 1481 1480 1479 1478 1478 1477 1477 1477 1478 1478 1479 1479 1480 1481 1482 1484 1485 1487 1488 1489 1490 1491 1492 1493 1494 1494 1495 1495 1496 1496 1497 1497 1498 1498 1499 1500 1501 1502 1504 1505 1506 1506
1483 1481 1480 1479 1477 1476 1475 1474 1474 1474 1474 1475 1475 1476 1478 1479 1481 1482 1484 1485 1486 1488 1489 1490 1491 1492 1492 1493 1493 1493 1493 1493 1494 1494 1495 1495 1496 1497 1498 1499 1500 1501 1501
1484 1483 1481 1479 1477 1476 1474 1473 1472 1471 1471 1471 1472 1473 1474 1475 1477 1479 1480 1482 1483 1485 1486 1488 1489 1489 1490 1490 1490 1490 1490 1490 1490 1490 1491 1491 1492 1492 1493 1494 1495 1496 1497
1486 1484 1481 1479 1477 1475 1474 1472 1471 1470 1469 1469 1469 1470 1471 1472 1474 1476 1477 1479 1480 1482 1483 1485 1486 1487 1488 1488 1488 1488 1487 1487 1487 1487 1487 1488 1488 1489 1490 1490 1491 1492 1493
1487 1485 1482 1480 1478 1476 1474 1472 1471 1469 1469 1468 1468 1469 1469 1470 1472 1473 1475 1476 1477 1479 1481 1482 1484 1484 1485 1485 1485 1485 1485 1485 1485 1485 1485 1485 1486 1486 1486 1487 1487 1488 1489
1488 1486 1484 1482 1480 1477 1475 1473 1471 1470 1469 1469 1468 1468 1469 1469 1470 1471 1472 1474 1475 1477 1479 1480 1481 1482 1483 1483 1483 1483 1483 1483 1483 1483 1483 1483 1483 1484 1484 1484 1485 1485 1486
1489 1487 1485 1484 1481 1479 1477 1475 1473 1472 1471 1470 1469 1469 1469 1469 1470 1471 1471 1473 1474 1475 1477 1478 1479 1480 1481 1481 1481 1481 1481 1482 1482 1482 1482 1481 1481 1481 1481 1482 1482 1482 1483
1489 1488 1486 1485 1483 1481 1479 1478 1476 1474 1473 1472 1471 1470 1470 1470 1470 1471 1472 1472 1473 1475 1476 1477 1478 1479 1479 1480 1480 1480 1480 1480 1481 1480 1480 1480 1480 1480 1480 1480 1480 1480 1480
1490 1488 1487 1486 1484 1483 1481 1479 1478 1477 1475 1474 1473 1472 1471 1471 1471 1472 1472 1473 1474 1475 1476 1477 1477 1478 1478 1479 1479 1479 1479 1480 1480 1479 1479 1479 1478 1478 1478 1478 1477 1477 1477
1490 1489 1487 1486 1485 1484 1482 1481 1480 1479 1477 1476 1475 1474 1474 1473 1474 1474 1474 1475 1475 1476 1477 1477 1478 1478 1478 1479 1479 1479 1479 1479 1479 1478 1478 1477 1477 1476 1476 1475 1475 1474 1474
1489 1488 1487 1486 1485 1484 1483 1482 1481 1480 1479 1479 1478 1477 1477 1476 1476 1476 1477 1477 1477 1477 1478 1478 1478 1479 1479 1479 1479 1478 1478 1478 1478 1477 1477 1476 1475 1475 1474 1473 1472 1471 1470
1489 1488 1487 1486 1486 1485 1484 1483 1482 1482 1481 1481 1480 1480 1479 1479 1479 1479 1479 1479 1479 1479 1479 1480 1480 1479 1479 1479 1479 1478 1478 1477 1477 1476 1475 1474 1473 1472 1471 1470 1469 1468 1467
1488 1488 1487 1487 1486 1486 1485 1484 1484 1483 1483 1482 1482 1482 1482 1482 1482 1482 1482 1481 1481 1481 1481 1481 1481 1480 1480 1479 1479 1478 1477 1476 1475 1474 1473 1472 1470 1469 1468 1467 1466 1464 1463
1488 1487 1487 1487 1487 1486 1486 1485 1485 1485 1485 1484 1484 1484 1484 1484 1484 1484 1484 1483 1483 1483 1482 1482 1481 1481 1480 1479 1478 1477 1475 1474 1473 1471 1470 1469 1467 1466 1465 1464 1463 1461 1460
1487 1487 1487 1487 1487 1487 1487 1487 1487 1487 1487 1486 1486 1486 1486 1486 1486 1486 1486 1485 1485 1484 1483 1483 1482 1481 1480 1478 1477 1475 1474 1472 1470 1469 1467 1466 1464 1463 1462 1461 1460 1458 1456
1486 1486 1487 1487 1487 1487 1487 1488 1488 1488 1488 1488 1488 1488 1488 1488 1488 1488 1487 1486 1486 1485 1484 1483 1482 1481 1479 1478 1476 1474 1473 1471 1469 1467 1465 1464 1462 1461 1460 1459 1457 1456 1454
1485 1485 1486 1487 1487 1488 1488 1488 1489 1489 1489 1490 1490 1490 1490 1489 1489 1489 1488 1487 1486 1486 1484 1483 1482 1481 1479 1478 1476 1474 1472 1470 1468 1466 1464 1463 1461 1460 1459 1457 1456 1454 1452
1484 1485 1485 1486 1487 1488 1488 1488 1489 1489 1490 1490 1490 1490 1490 1490 1490 1489 1488 1488 1487 1486 1485 1484 1482 1481 1479 1478 1476 1474 1471 1469 1467 1465 1464 1462 1461 1459 1458 1456 1454 1452 1451